RH
53 55 56 57 66 78 76 67 65 63 58 57 55 54 55 55 54 55 56 57 58 57 57 57 58 59 56 53 49 46 44 43 42 41 40 40 39 38 38 38 37 35 34 33 31 30 30 29 27 27 25 24 23 22 20 18 17 16 17 17 19 20 19 18 17 14 12 12 11 10 10 10 10 9 9 9 10 10 10 10 10 11 11 12 12
60 60 62 62 66 72 74 71 69 68 65 63 61 59 59 60 60 60 61 63 62 61 61 60 61 63 63 61 57 53 50 48 47 46 45 44 43 42 42 42 41 39 38 37 36 36 36 36 35 34 33 32 30 28 27 25 23 22 19 18 19 19 18 17 16 15 13 12 12 11 11 10 10 10 10 10 10 10 10 10 11 13 15 15 15
64 70 73 73 71 69 70 71 70 71 72 71 69 66 64 64 65 65 65 65 64 63 64 63 60 60 63 65 62 59 56 53 52 52 52 51 50 49 47 46 47 46 45 43 42 41 42 42 42 41 40 39 37 35 34 32 30 28 26 24 21 20 17 15 14 14 13 12 12 11 10 10 10 10 9 10 11 11 12 12 13 16 18 19 19
60 68 73 76 76 75 74 75 76 77 79 79 78 77 74 72 72 72 70 69 68 66 66 67 65 60 61 64 64 61 60 58 56 55 56 57 57 56 55 54 53 52 48 46 45 45 46 48 48 48 47 44 42 40 39 38 36 34 31 30 27 25 23 20 18 16 14 13 12 11 10 9 9 9 10 11 13 13 15 16 17 17 18 19 19
55 60 65 70 73 73 74 77 78 78 77 76 77 80 80 77 76 77 78 76 75 72 69 70 71 68 65 66 68 68 67 62 58 55 55 56 56 56 56 55 54 52 48 47 46 46 46 46 48 49 50 49 46 42 40 39 39 38 36 34 32 30 28 26 23 21 18 16 15 14 12 11 11 10 10 12 13 13 14 16 18 18 17 18 18
53 56 61 65 65 64 66 70 71 71 71 70 71 74 76 75 73 74 79 81 79 77 75 73 73 73 71 71 72 73 72 67 62 59 56 54 54 53 53 54 54 53 53 51 50 50 49 47 46 45 46 46 45 43 40 39 37 37 36 35 35 35 34 32 29 27 24 22 20 19 18 16 15 15 15 16 15 16 17 17 16 17 17 18 18
51 53 56 59 59 59 59 61 63 64 65 64 64 65 67 70 69 68 75 83 81 77 75 74 74 75 76 75 73 72 72 72 70 66 62 61 60 56 54 55 54 53 53 54 54 54 53 51 50 48 47 46 46 44 43 41 38 35 33 33 34 34 35 35 34 31 29 27 26 25 24 23 21 20 19 19 19 21 23 22 18 16 16 17 18
48 49 50 52 54 56 59 61 62 62 62 61 60 57 57 60 62 63 68 77 80 77 76 76 76 76 76 76 74 73 73 75 76 73 69 69 70 65 60 57 55 53 54 56 57 57 56 55 55 53 51 49 48 47 45 42 39 37 35 35 33 32 32 33 34 33 31 30 28 27 27 27 27 25 24 23 22 22 23 23 21 18 17 16 15
47 49 51 52 52 53 54 55 55 55 55 53 50 48 48 50 53 56 59 63 66 66 66 67 69 71 72 72 72 75 78 79 79 78 73 72 73 73 70 64 57 56 57 59 59 58 58 57 55 53 51 51 51 50 48 44 41 39 37 35 33 32 30 29 29 29 29 29 28 27 26 26 27 26 26 27 26 25 24 23 21 20 19 16 16
45 45 46 46 45 45 45 45 44 44 44 44 43 43 44 46 48 50 51 52 53 54 55 57 61 64 66 67 67 70 75 78 79 78 75 73 71 72 73 70 64 59 58 58 60 61 60 56 52 50 49 51 52 53 50 47 44 41 37 34 31 29 28 27 26 24 24 23 23 22 21 22 23 23 23 25 26 27 28 27 25 24 23 21 20
48 47 45 42 40 41 43 44 44 44 44 45 46 47 47 49 50 51 51 51 51 51 53 55 57 58 60 62 64 65 66 70 72 72 72 72 70 67 68 71 68 64 63 64 67 66 62 56 51 49 50 51 50 51 51 49 44 40 35 32 30 29 28 26 24 22 21 19 18 16 15 15 18 20 20 21 23 25 26 27 29 29 29 28 26
49 49 47 43 42 43 44 44 44 45 46 46 46 47 48 50 52 53 54 53 51 50 49 50 52 54 54 55 59 60 61 64 66 65 64 66 68 66 66 67 65 63 63 67 68 66 61 56 52 50 51 51 48 48 48 47 42 37 34 32 32 32 30 27 25 23 21 18 16 16 14 14 15 16 17 19 22 24 24 24 26 26 27 29 28
49 48 45 43 42 41 41 41 41 41 41 41 41 41 42 44 45 47 47 47 47 46 46 46 46 47 46 45 47 50 53 55 58 60 60 60 62 61 60 61 60 60 62 64 65 64 61 56 53 51 49 48 48 47 47 46 42 37 35 36 35 34 32 30 28 25 23 21 19 17 16 17 16 16 17 19 21 23 24 23 23 24 24 25 26
51 47 44 41 39 38 37 36 37 38 38 38 38 37 37 38 39 39 40 41 42 43 44 44 43 41 38 37 38 41 43 43 46 49 52 54 56 57 58 63 65 63 62 61 60 62 62 59 55 52 47 46 46 46 45 43 40 37 37 38 38 36 34 33 30 27 24 23 22 21 21 21 21 20 22 24 25 26 27 26 27 27 26 24 23
49 48 46 42 40 38 37 36 35 35 35 34 34 34 34 34 35 35 36 36 37 38 39 40 40 39 36 34 34 35 36 36 36 37 38 42 45 48 51 57 60 60 59 60 63 68 67 60 53 48 44 43 42 42 43 41 36 35 37 39 39 38 36 34 31 28 25 24 25 26 27 28 28 28 28 29 30 31 32 33 34 33 31 28 26
48 48 47 45 43 41 39 38 37 35 34 33 33 32 32 32 32 32 31 31 32 34 36 36 36 36 36 36 35 33 31 30 30 32 34 38 41 42 43 45 51 57 61 65 69 68 62 53 45 40 38 37 38 41 42 40 36 34 36 38 40 40 38 37 34 32 31 30 30 32 33 34 34 33 32 32 31 32 34 35 35 34 33 31 29
52 49 47 46 45 44 42 40 39 38 37 37 37 37 35 34 33 31 29 29 31 33 35 36 36 35 36 37 37 37 34 31 32 35 37 39 41 42 41 44 50 56 58 58 58 53 48 43 37 34 32 34 38 40 40 38 37 37 37 38 39 41 41 39 37 35 33 34 35 37 38 37 36 34 33 32 31 32 33 34 33 33 32 32 30
53 50 47 46 48 48 46 42 40 39 39 40 41 40 39 37 36 33 31 29 30 33 35 37 37 37 37 37 38 39 38 37 38 40 41 42 43 43 43 45 50 52 51 49 45 41 39 37 34 32 32 33 35 36 36 37 37 36 36 36 38 40 42 41 38 35 35 37 40 39 38 36 32 30 29 29 29 30 32 32 34 35 35 35 34
50 48 46 46 47 48 47 44 42 41 40 40 40 39 40 40 39 37 34 31 31 33 36 37 38 39 40 40 40 41 41 40 40 43 44 44 46 46 44 44 46 48 46 43 40 36 35 35 33 33 32 33 35 36 36 36 35 33 32 33 35 37 40 41 39 37 39 42 41 38 36 33 29 27 27 28 29 29 30 30 32 35 37 37 37
49 46 46 46 46 46 45 44 41 39 39 39 39 39 40 41 41 39 37 33 31 32 35 37 39 40 42 42 42 43 43 42 41 44 45 46 46 47 46 44 43 43 42 41 39 36 34 33 32 32 33 34 36 36 35 34 35 35 34 35 37 39 41 41 39 38 41 44 43 41 40 36 31 29 30 30 31 32 31 31 31 33 35 36 37
47 47 47 47 47 46 44 43 42 41 41 41 42 43 43 42 41 40 38 35 32 32 34 37 39 41 42 43 44 44 44 43 42 44 45 46 46 47 47 45 42 41 40 40 39 37 34 33 33 33 34 35 35 35 36 38 40 41 42 42 42 41 40 40 39 38 40 44 46 45 41 35 31 32 33 34 35 35 34 34 34 35 37 38 38
52 51 50 49 49 48 47 47 47 46 46 45 44 44 44 43 41 39 39 38 37 37 40 42 42 43 43 43 43 43 44 43 42 41 41 43 46 46 45 44 42 41 41 39 38 37 35 33 33 34 34 35 36 38 41 43 44 44 44 43 41 41 41 41 42 42 42 43 43 41 37 34 36 38 40 40 39 38 38 38 37 37 39 40 39
56 55 54 53 52 52 51 51 51 51 49 48 46 45 44 44 43 42 42 43 44 46 48 48 47 48 47 46 46 46 46 45 43 41 40 41 44 46 44 43 42 41 40 39 39 38 35 33 34 35 36 38 40 42 44 45 46 45 44 44 44 44 45 45 45 44 42 41 39 38 38 40 42 43 43 42 40 39 39 39 39 38 38 38 38
60 59 58 57 56 56 54 53 53 53 51 49 47 46 44 43 43 43 45 47 49 50 51 49 49 49 48 47 48 48 48 47 45 44 43 43 45 47 45 42 41 40 40 40 40 38 35 34 35 36 38 41 43 44 45 45 46 46 46 47 47 47 46 46 46 45 44 41 41 41 43 44 45 44 42 41 40 39 39 39 39 39 39 38 38
62 62 61 60 60 59 57 54 54 54 53 51 48 46 44 43 42 43 46 48 49 50 51 50 49 48 47 48 50 50 48 47 46 46 47 47 48 48 44 41 40 39 40 42 41 39 36 36 37 40 42 44 45 46 47 48 48 48 47 47 46 46 46 47 47 47 46 45 45 46 46 45 43 42 41 41 40 41 41 41 42 42 42 41 40
59 59 58 57 56 54 53 52 51 52 53 50 46 42 42 42 42 42 44 45 46 47 47 48 49 50 50 54 57 57 53 51 49 49 49 48 46 43 40 39 39 38 39 42 42 40 39 38 40 42 45 48 50 51 51 50 48 47 46 46 46 47 48 49 48 48 47 45 44 44 43 42 41 40 40 41 41 41 42 42 41 41 41 41 40
58 56 54 52 49 47 46 47 49 50 48 45 41 40 41 41 43 46 47 45 43 42 43 46 51 54 55 58 59 56 52 49 47 45 43 41 38 36 36 36 36 38 40 42 42 40 39 41 43 46 50 52 54 53 52 50 50 50 49 48 46 44 44 42 42 41 40 40 39 39 38 39 40 41 41 42 42 42 42 41 41 40 40 40 39
53 50 49 48 46 42 40 42 44 43 40 37 37 38 38 39 42 45 44 40 37 38 40 44 49 51 51 51 49 45 41 39 37 36 34 33 34 35 35 35 36 39 40 40 40 41 43 46 49 52 54 55 55 54 52 50 48 45 42 39 37 36 36 37 37 38 38 37 37 38 40 41 43 43 44 44 44 44 44 43 41 40 40 40 40
49 48 46 43 39 36 35 36 37 34 33 36 37 36 36 36 37 36 35 35 37 38 39 40 42 43 44 42 40 37 36 35 33 33 35 36 38 39 39 39 39 40 41 42 44 47 50 52 55 55 55 54 51 48 45 41 39 38 37 37 39 41 42 44 45 45 45 44 44 45 46 46 46 46 47 47 47 47 46 46 44 43 42 42 41
41 43 42 40 38 36 36 35 35 33 36 41 42 39 36 35 34 34 37 40 42 41 39 40 41 42 41 42 40 39 38 37 36 39 41 41 41 42 43 43 44 46 48 50 51 53 56 57 56 54 50 46 42 39 40 41 42 44 46 48 49 50 51 51 51 51 51 51 50 50 49 50 49 50 50 50 49 49 50 49 49 48 46 45 44
38 39 41 41 40 39 39 40 40 41 44 45 42 39 39 40 40 43 46 48 46 45 45 48 49 47 45 45 43 40 38 40 43 46 46 45 45 47 49 50 51 52 54 55 57 60 59 55 50 47 44 42 42 44 47 49 50 51 51 51 51 51 52 52 52 51 51 51 51 50 50 51 51 51 51 51 51 52 53 54 54 54 53 52 51
41 41 43 44 43 42 44 45 44 45 47 45 42 42 43 46 50 54 56 54 51 50 52 55 54 53 51 48 44 41 42 46 49 49 47 46 48 52 55 56 57 59 60 60 61 60 55 50 49 49 49 49 49 50 51 50 49 48 48 47 48 48 49 50 50 50 50 50 50 51 51 52 53 53 55 57 58 60 62 63 64 64 64 64 63
50 50 52 52 51 49 49 48 45 45 45 44 44 46 46 48 52 55 54 52 51 54 57 57 56 55 54 52 48 47 49 50 49 48 47 49 51 53 57 62 66 68 66 61 56 53 52 53 54 52 49 46 45 44 43 43 42 43 44 45 47 47 48 49 50 51 53 54 55 57 59 60 63 65 67 70 71 73 75 77 77 77 77 76 75
50 52 53 53 53 52 52 50 47 45 45 45 45 46 47 49 51 50 50 54 61 63 60 55 53 53 52 51 50 50 51 50 49 50 52 54 57 61 67 72 72 67 59 53 50 50 51 50 46 41 37 37 37 39 40 41 43 46 48 49 51 51 51 53 56 59 62 65 68 70 72 74 77 78 79 81 83 85 87 88 88 88 87 86 86
40 41 42 43 46 47 47 47 45 43 43 44 45 47 51 51 50 49 52 61 69 69 61 54 52 52 52 51 51 51 51 51 52 55 60 65 68 72 74 71 63 54 49 47 47 45 42 37 34 32 33 36 38 41 43 46 49 51 53 55 57 58 61 64 68 72 76 78 81 83 85 86 87 87 88 90 92 93 95 95 95 94 94 93 93
39 38 38 39 39 39 39 40 40 41 44 47 51 54 55 53 52 58 66 69 68 64 59 55 54 55 54 54 54 55 58 60 63 68 74 78 77 74 69 60 51 45 42 40 36 33 32 31 31 34 37 40 42 45 48 51 54 57 61 64 67 70 74 77 80 83 87 90 92 93 94 94 93 93 94 95 97 98 99 99 98 98 97 97 97
45 44 42 41 41 44 46 43 40 42 50 58 59 57 56 59 66 77 83 79 70 63 61 61 60 60 61 63 65 70 74 77 80 83 85 82 75 66 57 48 41 36 34 32 31 30 30 30 32 37 41 43 46 49 53 56 61 66 71 75 79 83 86 89 91 94 95 97 97 97 97 97 97 97 98 99 99 100 99 99 98 98 98 98 98
52 49 46 44 43 47 52 53 50 49 53 61 66 67 69 77 86 89 86 80 72 67 63 62 63 66 70 73 77 82 86 87 86 83 77 71 62 52 43 37 33 31 30 30 29 28 28 30 34 39 43 45 49 52 57 63 71 76 80 85 89 92 94 95 97 98 98 98 98 98 99 99 99 99 99 99 99 99 98 97 98 98 98 99 99
59 57 53 50 49 48 51 55 57 54 55 68 83 86 86 88 90 89 83 78 73 69 67 69 74 79 80 80 83 86 86 82 76 69 61 54 45 37 32 31 31 31 30 28 27 26 28 31 36 40 43 48 52 56 63 72 79 84 88 92 95 96 96 97 97 97 98 98 99 100 101 100 100 99 99 98 97 95 93 91 91 92 93 94 95
67 67 64 60 56 53 51 55 59 60 65 77 89 91 89 90 91 88 82 77 74 75 79 84 88 88 86 85 85 82 75 66 59 52 45 38 32 30 30 31 31 31 29 28 27 27 28 32 37 41 45 49 53 58 66 77 85 90 93 96 97 97 98 98 98 98 99 100 100 100 101 101 100 99 98 96 94 91 89 89 89 90 92 92 92
72 74 73 68 62 58 61 69 75 76 75 78 82 86 92 94 91 85 80 79 82 86 89 88 87 86 84 82 74 65 58 52 46 39 34 30 30 31 30 29 30 30 29 27 26 26 29 34 38 41 45 48 52 57 67 78 88 93 95 97 98 98 99 99 99 100 100 100 100 100 100 100 99 97 95 93 91 90 90 91 92 93 94 94 94
78 78 76 74 71 72 77 84 86 82 80 83 87 93 96 94 88 83 82 86 90 90 88 85 84 82 77 70 60 52 49 44 38 33 31 30 31 30 29 28 30 29 25 23 25 27 31 34 37 40 43 46 50 56 65 75 87 95 97 97 99 100 100 100 100 100 100 100 100 100 100 98 95 93 92 92 92 93 94 94 94 94 94 94 94
87 85 83 82 83 84 86 88 88 88 90 92 94 95 93 90 85 83 85 90 93 91 87 84 80 73 65 58 52 47 43 37 32 32 32 31 30 29 29 30 31 28 23 23 26 29 31 33 36 39 42 45 49 55 62 70 82 93 97 98 100 100 100 100 99 99 99 99 99 98 96 95 94 93 94 95 96 96 97 97 98 98 97 97 97
97 95 93 92 92 92 92 93 93 94 94 94 93 91 89 87 85 87 91 93 92 89 84 78 70 62 56 52 47 42 37 33 32 33 33 31 31 32 32 32 30 25 23 24 28 29 31 33 35 38 43 45 49 55 60 65 75 87 95 98 100 101 101 100 100 100 99 97 97 97 96 95 95 97 97 98 98 98 99 99 99 99 99 99 99
98 98 98 97 97 97 96 95 95 94 93 91 89 87 86 86 87 88 88 86 83 80 75 69 62 56 51 46 41 37 35 35 34 33 32 33 33 32 30 28 25 23 24 27 29 29 31 33 34 38 42 45 48 53 58 61 68 81 93 98 99 100 101 100 100 99 97 94 95 98 98 98 98 99 99 99 100 99 99 100 100 99 99 99 99
97 97 97 97 97 96 95 95 94 94 93 91 89 87 87 88 86 84 82 80 76 71 65 60 57 53 47 42 38 36 35 35 34 33 33 32 30 28 28 26 22 22 27 30 29 29 30 32 34 38 42 44 47 51 55 56 61 74 89 97 98 99 101 100 99 99 96 92 94 98 100 99 98 99 99 99 100 101 100 99 98 98 97 97 97
95 95 96 95 95 95 95 95 94 93 93 93 91 90 88 87 87 86 82 75 67 60 56 53 50 46 43 40 39 37 36 36 34 34 33 32 28 27 27 25 22 24 28 30 30 29 30 32 34 38 41 43 45 48 50 51 55 67 83 93 97 99 100 100 100 99 96 94 95 99 99 98 97 98 98 99 100 100 99 96 94 94 94 94 94
93 93 93 93 93 93 94 93 93 93 93 92 92 90 87 85 83 77 70 62 56 53 52 49 44 40 40 41 40 39 37 36 35 34 33 31 28 27 25 22 20 23 29 31 31 31 31 32 35 38 39 40 42 44 46 47 50 58 73 87 95 98 100 100 100 98 96 95 96 97 97 97 97 98 98 99 99 97 95 93 90 88 87 87 87
89 90 90 90 91 91 91 90 90 90 89 89 90 88 84 77 69 62 56 54 52 51 47 42 38 37 38 40 39 38 36 35 34 34 32 30 28 27 23 20 19 24 29 31 32 32 33 34 35 35 36 37 39 40 42 43 45 50 62 78 90 95 98 99 99 97 96 95 96 96 97 98 98 97 97 98 98 94 92 92 91 89 87 85 83
83 84 85 85 85 86 85 86 86 85 85 85 82 78 71 64 59 56 54 53 51 49 44 39 36 35 36 37 36 36 37 37 37 35 32 30 29 26 22 19 21 24 27 30 32 34 35 36 35 34 33 34 36 37 39 41 42 43 51 66 81 90 94 96 98 98 97 96 95 96 97 97 98 98 96 94 95 94 92 92 92 92 91 91 87
78 78 78 79 79 79 79 79 78 77 76 74 71 66 62 58 56 55 53 52 51 49 46 42 39 35 34 35 36 38 39 41 40 37 33 30 29 27 23 21 22 24 26 28 31 35 37 36 34 32 30 30 32 34 36 39 39 39 44 55 69 81 88 92 95 97 97 96 95 96 96 96 98 99 96 91 91 93 93 92 93 94 95 95 93